| time (UTC) | temp F | wind direction | speed knots | gust knots | rain 1hr in | rain 24hr in | rain mn in | humidity % | barometer mb |
| 20260507003043 | 66 | 5 | 3.5 | 9.6 | 0.00 | 0.00 | 0.00 | 68 | 1021.4 |
| 20260507001557 | 67 | 292 | 1.7 | 9.6 | 0.00 | 0.00 | 0.00 | 66 | 1021.2 |
| 20260507000054 | 67 | 22 | 3.5 | 7.8 | 0.00 | 0.00 | 0.00 | 66 | 1021.2 |
| 20260506234601 | 68 | 340 | 4.3 | 7.0 | 0.00 | 0.00 | 0.00 | 63 | 1021.3 |
| 20260506233050 | 67 | 9 | 1.7 | 7.0 | 0.00 | 0.00 | 0.00 | 69 | 1021.3 |
| 20260506231547 | 66 | 25 | 1.7 | 7.0 | 0.00 | 0.00 | 0.00 | 70 | 1021.4 |
| 20260506230054 | 66 | 19 | 1.7 | 4.3 | 0.00 | 0.00 | 0.00 | 71 | 1021.4 |
| 20260506224552 | 66 | 39 | 1.7 | 4.3 | 0.00 | 0.00 | 0.00 | 69 | 1021.5 |
| 20260506223040 | 66 | 23 | 0.9 | 5.2 | 0.00 | 0.00 | 0.00 | 72 | 1021.7 |
| 20260506221559 | 67 | 28 | 0.9 | 3.5 | 0.00 | 0.00 | 0.00 | 73 | 1021.5 |
| 20260506220049 | 66 | 0 | 0.9 | 3.5 | 0.00 | 0.00 | 0.00 | 71 | 1021.5 |
| 20260506214547 | 66 | 91 | 0.0 | 6.1 | 0.00 | 0.00 | 0.00 | 74 | 1021.6 |
| 20260506213055 | 67 | 42 | 1.7 | 3.5 | 0.00 | 0.00 | 0.00 | 71 | 1021.6 |
| 20260506211553 | 66 | 82 | 2.6 | 6.1 | 0.00 | 0.00 | 0.00 | 72 | 1021.7 |
| 20260506210051 | 66 | 0 | 0.9 | 5.2 | 0.00 | 0.00 | 0.00 | 73 | 1021.8 |
| 20260506204548 | 67 | 352 | 1.7 | 7.0 | 0.00 | 0.00 | 0.00 | 71 | 1021.6 |
| 20260506203048 | 65 | 316 | 2.6 | 7.8 | 0.00 | 0.00 | 0.00 | 75 | 1021.8 |
| 20260506201550 | 64 | 352 | 0.9 | 4.3 | 0.00 | 0.00 | 0.00 | 76 | 1021.9 |
| 20260506200046 | 65 | 71 | 1.7 | 5.2 | 0.00 | 0.00 | 0.00 | 73 | 1021.8 |
| 20260506194550 | 65 | 107 | 1.7 | 4.3 | 0.00 | 0.00 | 0.00 | 74 | 1021.8 |
| 20260506193050 | 63 | 0 | 1.7 | 6.1 | 0.00 | 0.00 | 0.00 | 75 | 1022.0 |
| 20260506191542 | 63 | 125 | 1.7 | 7.8 | 0.00 | 0.00 | 0.00 | 78 | 1022.1 |
| 20260506190050 | 62 | 130 | 1.7 | 5.2 | 0.00 | 0.00 | 0.00 | 79 | 1022.0 |
| 20260506184546 | 62 | 49 | 1.7 | 4.3 | 0.00 | 0.00 | 0.00 | 78 | 1022.0 |
| 20260506183042 | 62 | 36 | 0.9 | 7.8 | 0.00 | 0.00 | 0.00 | 80 | 1022.0 |
| 20260506181556 | 62 | 62 | 1.7 | 5.2 | 0.00 | 0.00 | 0.00 | 76 | 1022.0 |
| 20260506180051 | 62 | 48 | 1.7 | 7.8 | 0.00 | 0.00 | 0.00 | 78 | 1021.8 |
| 20260506174544 | 62 | 245 | 1.7 | 6.1 | 0.00 | 0.00 | 0.00 | 80 | 1021.7 |
| 20260506173114 | 59 | 0 | 0.9 | 6.1 | 0.00 | 0.00 | 0.00 | 83 | 1021.7 |
| 20260506171556 | 58 | 120 | 1.7 | 3.5 | 0.00 | 0.00 | 0.00 | 82 | 1021.8 |
| 20260506164549 | 58 | 30 | 0.9 | 6.1 | 0.00 | 0.00 | 0.00 | 82 | 1021.8 |
| 20260506163055 | 58 | 0 | 0.9 | 2.6 | 0.00 | 0.00 | 0.00 | 81 | 1021.8 |
| 20260506161548 | 57 | 352 | 0.0 | 2.6 | 0.00 | 0.00 | 0.00 | 82 | 1021.6 |
| 20260506160049 | 57 | 9 | 0.0 | 2.6 | 0.00 | 0.00 | 0.00 | 83 | 1021.7 |
| 20260506154605 | 56 | 0 | 0.9 | 2.6 | 0.00 | 0.00 | 0.00 | 82 | 1021.5 |
| 20260506153049 | 56 | 0 | 0.9 | 2.6 | 0.00 | 0.00 | 0.00 | 82 | 1021.3 |
| 20260506151542 | 56 | 19 | 0.9 | 2.6 | 0.00 | 0.00 | 0.00 | 84 | 1020.9 |
| 20260506150050 | 55 | 352 | 0.9 | 3.5 | 0.00 | 0.00 | 0.00 | 85 | 1021.2 |
| 20260506144552 | 55 | 0 | 0.0 | 3.5 | 0.00 | 0.00 | 0.00 | 87 | 1021.4 |
| 20260506143048 | 54 | 5 | 0.9 | 3.5 | 0.00 | 0.00 | 0.00 | 88 | 1021.6 |
| 20260506141542 | 53 | 5 | 0.0 | 4.3 | 0.00 | 0.00 | 0.00 | 89 | 1021.4 |
| 20260506140042 | 53 | 0 | 0.0 | 1.7 | 0.00 | 0.00 | 0.00 | 92 | 1021.2 |
| 20260506134550 | 52 | 250 | 0.0 | 0.0 | 0.00 | 0.00 | 0.00 | 92 | 1020.8 |
| 20260506133058 | 52 | 0 | 0.0 | 1.7 | 0.00 | 0.00 | 0.00 | 93 | 1020.8 |
| 20260506131549 | 51 | 0 | 0.0 | 0.9 | 0.00 | 0.00 | 0.00 | 94 | 1020.7 |
| 20260506130052 | 51 | 280 | 0.0 | 1.7 | 0.00 | 0.00 | 0.00 | 94 | 1020.5 |
| 20260506124544 | 51 | 280 | 0.9 | 2.6 | 0.00 | 0.00 | 0.00 | 93 | 1020.3 |
| 20260506123050 | 51 | 278 | 0.0 | 1.7 | 0.00 | 0.00 | 0.00 | 90 | 1020.0 |
| 20260506121548 | 53 | 0 | 0.0 | 0.0 | 0.00 | 0.00 | 0.00 | 89 | 1020.1 |
| 20260506120048 | 54 | 0 | 0.0 | 0.0 | 0.00 | 0.00 | 0.00 | 87 | 1020.1 |
| 20260506114549 | 55 | 0 | 0.0 | 0.9 | 0.00 | 0.00 | 0.00 | 87 | 1020.0 |
| 20260506113042 | 55 | 352 | 0.0 | 2.6 | 0.00 | 0.00 | 0.00 | 86 | 1020.0 |
| 20260506111547 | 55 | 352 | 0.9 | 2.6 | 0.00 | 0.00 | 0.00 | 86 | 1020.0 |
| 20260506110047 | 55 | 5 | 0.9 | 4.3 | 0.00 | 0.00 | 0.00 | 87 | 1019.9 |
| 20260506104608 | 55 | 5 | 1.7 | 3.5 | 0.00 | 0.00 | 0.00 | 86 | 1019.7 |
| 20260506103045 | 55 | 5 | 0.9 | 6.1 | 0.00 | 0.00 | 0.00 | 87 | 1019.5 |
| 20260506101549 | 55 | 313 | 0.9 | 7.0 | 0.00 | 0.00 | 0.00 | 87 | 1019.5 |
| 20260506100045 | 55 | 0 | 0.9 | 5.2 | 0.00 | 0.00 | 0.00 | 87 | 1019.2 |
| 20260506094543 | 55 | 11 | 0.9 | 6.1 | 0.00 | 0.00 | 0.00 | 87 | 1019.0 |
| 20260506093040 | 55 | 337 | 1.7 | 5.2 | 0.00 | 0.00 | 0.00 | 87 | 1018.9 |
| 20260506091548 | 55 | 31 | 0.9 | 3.5 | 0.00 | 0.00 | 0.00 | 87 | 1019.0 |
| 20260506090048 | 55 | 0 | 0.0 | 3.5 | 0.00 | 0.00 | 0.00 | 87 | 1018.9 |
| 20260506084545 | 55 | 9 | 0.0 | 3.5 | 0.00 | 0.00 | 0.00 | 87 | 1018.9 |
| 20260506083048 | 55 | 14 | 0.9 | 3.5 | 0.00 | 0.00 | 0.00 | 87 | 1018.9 |
| 20260506081541 | 55 | 342 | 0.0 | 3.5 | 0.00 | 0.00 | 0.00 | 88 | 1018.9 |
| 20260506073050 | 55 | 0 | 0.0 | 1.7 | 0.00 | 0.00 | 0.00 | 92 | 1018.6 |
| 20260506071545 | 55 | 0 | 0.0 | 0.0 | 0.00 | 0.00 | 0.00 | 93 | 1018.5 |
| 20260506061547 | 57 | 0 | 0.0 | 0.0 | 0.00 | 0.00 | 0.00 | 91 | 1018.1 |
| 20260506044556 | 57 | 0 | 0.0 | 1.7 | 0.00 | 0.00 | 0.00 | 89 | 1017.8 |
| 20260506043053 | 57 | 0 | 0.0 | 0.0 | 0.00 | 0.00 | 0.00 | 89 | 1017.7 |
| 20260506041547 | 57 | 0 | 0.0 | 2.6 | 0.00 | 0.00 | 0.00 | 88 | 1017.5 |
| 20260506040050 | 57 | 252 | 0.0 | 2.6 | 0.00 | 0.00 | 0.00 | 88 | 1017.2 |
| 20260506034549 | 57 | 242 | 0.9 | 2.6 | 0.00 | 0.00 | 0.00 | 87 | 1017.0 |
| 20260506033048 | 58 | 247 | 0.9 | 2.6 | 0.00 | 0.00 | 0.00 | 85 | 1016.9 |
| 20260506031547 | 60 | 229 | 0.9 | 1.7 | 0.00 | 0.00 | 0.00 | 82 | 1016.7 |
| 20260506030047 | 62 | 0 | 0.0 | 3.5 | 0.00 | 0.00 | 0.00 | 76 | 1016.7 |
| 20260506024552 | 63 | 114 | 0.0 | 1.7 | 0.00 | 0.00 | 0.00 | 75 | 1016.6 |
| 20260506023055 | 64 | 0 | 0.9 | 5.2 | 0.00 | 0.00 | 0.00 | 74 | 1016.4 |
| 20260506021557 | 65 | 98 | 0.9 | 2.6 | 0.00 | 0.00 | 0.00 | 72 | 1016.2 |
| 20260506020045 | 66 | 111 | 0.9 | 3.5 | 0.00 | 0.00 | 0.00 | 72 | 1016.2 |
| 20260506014547 | 66 | 0 | 0.0 | 3.5 | 0.00 | 0.00 | 0.00 | 71 | 1016.1 |
| 20260506013048 | 66 | 15 | 1.7 | 5.2 | 0.00 | 0.00 | 0.00 | 72 | 1016.4 |
| 20260506011548 | 66 | 44 | 0.9 | 5.2 | 0.00 | 0.00 | 0.00 | 72 | 1016.3 |
| 20260506010048 | 67 | 42 | 0.9 | 3.5 | 0.00 | 0.00 | 0.00 | 70 | 1016.4 |
| 20260506004540 | 66 | 101 | 0.9 | 3.5 | 0.00 | 0.00 | 0.00 | 71 | 1016.5 |